Simultaneous Nadir Overpasses (SNOs) Predictions

Prediction of SNOs between METOP-A and NOAA-19 Satellite Orbit:

Table of predicted SNOs for the next 14.0 days since TLE Epoch: 9/22/2017
Index Date (METOP-A) Time (METOP-A) Lat,Lon (METOP-A) SZA (METOP-A ) Date (NOAA-19) Time (NOAA-19) Lat,Lon (NOAA-19) SZA (NOAA-19 ) Distance(km) Time Diff (sec)
1 09/24/2017 11:26:30 77.94, 15.49 78.67 09/24/2017 11:25:22 77.92, 12.78 78.57 63.07 68
2 09/24/2017 12:17:18 -77.66,-178.54 101.64 09/24/2017 12:16:21 -77.66,-178.59 101.65 1.33 57
3 09/24/2017 13:07:59 77.63, -11.35 78.34 09/24/2017 13:07:17 77.67, -11.36 78.38 4.10 42
4 09/24/2017 13:58:40 -77.64, 156.03 101.63 09/24/2017 13:58:22 -77.64, 156.00 101.64 0.68 18
5 09/24/2017 14:49:20 77.65, -36.59 78.40 09/24/2017 14:49:18 77.65, -36.76 78.39 4.09 2
6 09/24/2017 15:40:02 -77.62, 130.59 101.63 09/24/2017 15:40:23 -77.62, 130.59 101.62 0.29 21
7 09/24/2017 16:30:42 77.63, -62.03 78.40 09/24/2017 16:31:19 77.63, -62.17 78.40 3.43 37
8 09/24/2017 17:21:24 -77.60, 105.16 101.62 09/24/2017 17:22:24 -77.61, 105.18 101.61 0.75 60
9 09/24/2017 18:12:05 77.57, -87.66 78.36 09/24/2017 18:13:19 77.57, -87.37 78.38 6.78 74
10 10/05/2017 06:45:04 -77.70, -95.33 97.39 10/05/2017 06:43:59 -77.68, -95.29 97.42 2.47 65
11 10/05/2017 07:35:45 77.67, 71.84 82.59 10/05/2017 07:34:56 77.71, 71.83 82.62 4.49 49
12 10/05/2017 08:26:26 -77.68,-120.76 97.39 10/05/2017 08:26:00 -77.67,-120.70 97.41 2.53 26
13 10/05/2017 09:17:06 77.69, 46.61 82.64 10/05/2017 09:16:57 77.69, 46.42 82.64 4.37 9
14 10/05/2017 10:07:48 -77.66,-146.20 97.38 10/05/2017 10:08:01 -77.65,-146.11 97.39 2.74 13
15 10/05/2017 10:58:28 77.67, 21.17 82.65 10/05/2017 10:58:58 77.67, 21.01 82.65 3.72 30
16 10/05/2017 11:49:10 -77.64,-171.64 97.38 10/05/2017 11:50:02 -77.63,-171.52 97.38 3.06 52
17 10/05/2017 12:39:50 77.65, -4.27 82.65 10/05/2017 12:40:59 77.66, -4.40 82.66 3.11 69




NCC Satellite Simultaneous Nadir Overpasses (SNOs) Prediction Service
